TimeEDT,TemperatureF,Dew PointF,Humidity,Sea Level PressureIn,VisibilityMPH,Wind Direction,Wind SpeedMPH,Gust SpeedMPH,PrecipitationIn,Events,Conditions,WindDirDegrees,DateUTC
12:51 AM,71.1,66.0,84,30.07,10.0,WSW,9.2,-,N/A,,Mostly Cloudy,250,2013-08-20 04:51:00
1:51 AM,70.0,64.9,84,30.06,10.0,West,5.8,-,N/A,,Scattered Clouds,260,2013-08-20 05:51:00
2:51 AM,70.0,64.9,84,30.07,8.0,West,8.1,-,N/A,,Partly Cloudy,260,2013-08-20 06:51:00
3:51 AM,69.1,64.9,87,30.07,8.0,West,9.2,-,N/A,,Clear,260,2013-08-20 07:51:00
4:51 AM,68.0,64.9,90,30.07,6.0,West,5.8,-,N/A,,Clear,260,2013-08-20 08:51:00
5:51 AM,68.0,64.9,90,30.08,5.0,West,8.1,-,N/A,,Clear,260,2013-08-20 09:51:00
6:51 AM,69.1,64.9,87,30.10,3.0,WNW,5.8,-,N/A,,Clear,290,2013-08-20 10:51:00
7:51 AM,72.0,64.9,78,30.12,4.0,West,4.6,-,N/A,,Haze,270,2013-08-20 11:51:00
8:51 AM,73.9,66.0,76,30.13,6.0,WSW,3.5,-,N/A,,Haze,240,2013-08-20 12:51:00
9:51 AM,78.1,64.9,64,30.13,7.0,SW,3.5,-,N/A,,Clear,230,2013-08-20 13:51:00
10:51 AM,82.0,62.1,51,30.14,9.0,NW,8.1,-,N/A,,Clear,310,2013-08-20 14:51:00
11:51 AM,84.0,64.0,51,30.13,10.0,WSW,5.8,-,N/A,,Partly Cloudy,240,2013-08-20 15:51:00
12:51 PM,84.0,64.9,53,30.12,10.0,SW,10.4,-,N/A,,Partly Cloudy,220,2013-08-20 16:51:00
1:51 PM,82.9,64.9,54,30.11,10.0,SSW,13.8,-,N/A,,Scattered Clouds,210,2013-08-20 17:51:00
2:51 PM,84.0,63.0,49,30.10,10.0,SSW,13.8,-,N/A,,Scattered Clouds,200,2013-08-20 18:51:00
3:51 PM,81.0,64.9,58,30.09,10.0,South,16.1,-,N/A,,Scattered Clouds,190,2013-08-20 19:51:00
4:51 PM,80.1,64.0,58,30.08,10.0,SSW,15.0,-,N/A,,Partly Cloudy,200,2013-08-20 20:51:00
5:51 PM,79.0,64.9,62,30.09,10.0,SSW,15.0,-,N/A,,Partly Cloudy,200,2013-08-20 21:51:00
6:51 PM,77.0,66.0,69,30.09,10.0,South,10.4,-,N/A,,Partly Cloudy,190,2013-08-20 22:51:00
7:51 PM,75.0,66.9,76,30.10,10.0,South,12.7,-,N/A,,Partly Cloudy,190,2013-08-20 23:51:00
8:51 PM,75.0,68.0,79,30.12,10.0,Calm,Calm,-,N/A,,Scattered Clouds,0,2013-08-21 00:51:00
9:51 PM,73.9,69.1,85,30.13,10.0,South,3.5,-,N/A,,Scattered Clouds,170,2013-08-21 01:51:00
10:51 PM,73.9,69.1,85,30.13,10.0,SSW,3.5,-,N/A,,Scattered Clouds,200,2013-08-21 02:51:00
11:51 PM,73.9,69.1,85,30.14,10.0,SW,5.8,-,N/A,,Mostly Cloudy,230,2013-08-21 03:51:00